CAL1723 ZGGG-UACC

Flight info

Callsign CAL1723
Flight time N/A
Altitude 38100
Route AGVIL1 AGVIL W24 OSNOV G586 QP B330 ELKAL W179 RIRKI W232 WFX W179 OMBON W195 VIDEK/K0896S1190 W195 LAXAL/K0893S1220 W195 UPKOD W565 DNC W622 BUKPU W197 ANDIM B215 IBANO G470 AKLAS W192 FKG A368 SARIN/K0891F400 M166 AGZ W348 GORBO M166 KRG N170 BANOS
Aircraft A359/H-SDE2E3GHIJ3J4J5LM1ORWXY/LB1D1

Departure

Time 2026-05-06 05:37
Airport Guangzhou Baiyun International Airport (ZGGG)

Arrival

Time N/A
Airport Nursultan Nazarbayev International Airport (UACC)
Time Latitude Longitude Altitude Speed Heading
2026-05-06 05:11 23.38850 113.30310 63 ft 0 kts 220°
2026-05-06 05:29 23.38861 113.30319 62 ft 0 kts 220°
2026-05-06 05:29 23.38875 113.30332 62 ft 0 kts 219°
2026-05-06 05:29 23.38892 113.30343 62 ft 0 kts 191°
2026-05-06 05:30 23.38909 113.30341 62 ft 0 kts 146°
2026-05-06 05:30 23.38921 113.30328 62 ft 1 kts 126°
2026-05-06 05:30 23.38922 113.30329 62 ft 0 kts 136°
2026-05-06 05:31 23.38913 113.30333 62 ft 2 kts 160°
2026-05-06 05:32 23.38899 113.30345 62 ft 4 kts 126°
2026-05-06 05:32 23.38881 113.30396 62 ft 10 kts 108°
2026-05-06 05:32 23.38854 113.30500 62 ft 16 kts 107°
2026-05-06 05:32 23.38834 113.30629 62 ft 18 kts 72°
2026-05-06 05:33 23.38920 113.30691 62 ft 18 kts
2026-05-06 05:33 23.39035 113.30710 62 ft 21 kts 15°
2026-05-06 05:33 23.39197 113.30756 62 ft 26 kts 15°
2026-05-06 05:33 23.39387 113.30816 62 ft 31 kts 14°
2026-05-06 05:34 23.39626 113.30882 62 ft 36 kts 15°
2026-05-06 05:34 23.39879 113.30960 62 ft 37 kts 15°
2026-05-06 05:34 23.40123 113.31023 62 ft 37 kts 12°
2026-05-06 05:34 23.40234 113.31049 62 ft 32 kts 12°
2026-05-06 05:35 23.40431 113.31096 62 ft 33 kts 13°
2026-05-06 05:35 23.40648 113.31157 62 ft 24 kts 22°
2026-05-06 05:35 23.40690 113.31258 62 ft 13 kts 115°
2026-05-06 05:35 23.40677 113.31318 62 ft 6 kts 102°
2026-05-06 05:36 23.40653 113.31354 62 ft 6 kts 152°
2026-05-06 05:36 23.40606 113.31355 62 ft 7 kts 191°
2026-05-06 05:36 23.40559 113.31342 62 ft 15 kts 193°
2026-05-06 05:36 23.40262 113.31262 62 ft 81 kts 194°
2026-05-06 05:37 23.39597 113.31091 63 ft 138 kts 195°
2026-05-06 05:37 23.38744 113.30849 67 ft 180 kts 194°
2026-05-06 05:37 23.37995 113.30644 270 ft 191 kts 194°
2026-05-06 05:37 23.36662 113.30273 883 ft 201 kts 194°
2026-05-06 05:38 23.35315 113.30176 1802 ft 192 kts 172°
2026-05-06 05:38 23.33925 113.30410 2500 ft 195 kts 172°
2026-05-06 05:38 23.32615 113.30602 2799 ft 208 kts 173°
2026-05-06 05:38 23.31214 113.30771 3086 ft 224 kts 171°
2026-05-06 05:39 23.29751 113.31386 3412 ft 240 kts 140°
2026-05-06 05:39 23.28759 113.32886 3780 ft 254 kts 107°
2026-05-06 05:39 23.28336 113.34710 4209 ft 267 kts 101°
2026-05-06 05:39 23.27962 113.36579 4767 ft 274 kts 101°
2026-05-06 05:40 23.27596 113.38346 5401 ft 277 kts 102°
2026-05-06 05:40 23.27161 113.40340 6119 ft 280 kts 102°
2026-05-06 05:40 23.26713 113.42368 6828 ft 283 kts 99°
2026-05-06 05:40 23.26648 113.44383 7483 ft 284 kts 79°
2026-05-06 05:41 23.27221 113.46345 8175 ft 284 kts 64°
2026-05-06 05:41 23.28811 113.49885 9470 ft 289 kts 62°
2026-05-06 05:41 23.29765 113.51657 10100 ft 291 kts 47°
2026-05-06 05:42 23.31334 113.53023 10583 ft 297 kts 23°
2026-05-06 05:42 23.33371 113.53645 10915 ft 311 kts
2026-05-06 05:42 23.35549 113.54044 11238 ft 326 kts
2026-05-06 05:42 23.37795 113.54447 11539 ft 341 kts
2026-05-06 05:43 23.40155 113.54896 11837 ft 356 kts
2026-05-06 05:43 23.42632 113.55359 12119 ft 370 kts
2026-05-06 05:43 23.45270 113.55107 12348 ft 383 kts 341°
2026-05-06 05:43 23.47657 113.53739 12811 ft 391 kts 327°
2026-05-06 05:44 23.49928 113.52129 13434 ft 393 kts 327°
2026-05-06 05:44 23.52239 113.50497 14010 ft 397 kts 327°
2026-05-06 05:44 23.54559 113.48895 14563 ft 401 kts 328°
2026-05-06 05:44 23.56754 113.47405 15069 ft 404 kts 328°
2026-05-06 05:45 23.58796 113.46035 15524 ft 406 kts 329°
2026-05-06 05:45 23.61212 113.44428 16048 ft 410 kts 329°
2026-05-06 05:45 23.63614 113.42840 16554 ft 413 kts 329°
2026-05-06 05:45 23.66083 113.41212 17063 ft 416 kts 329°
2026-05-06 05:46 23.68568 113.39576 17560 ft 419 kts 329°
2026-05-06 05:46 23.71049 113.37944 18040 ft 422 kts 329°
2026-05-06 05:46 23.73564 113.36292 18509 ft 425 kts 329°
2026-05-06 05:46 23.76127 113.34606 18975 ft 428 kts 329°
2026-05-06 05:47 23.78795 113.32853 19445 ft 431 kts 329°
2026-05-06 05:47 23.81461 113.31100 19901 ft 434 kts 329°
2026-05-06 05:47 23.84080 113.29377 20339 ft 437 kts 329°
2026-05-06 05:47 23.86707 113.27648 20770 ft 440 kts 329°
2026-05-06 05:48 23.89352 113.25906 21188 ft 443 kts 329°
2026-05-06 05:48 23.91986 113.24171 21593 ft 446 kts 329°
2026-05-06 05:48 23.94657 113.22411 21998 ft 448 kts 329°
2026-05-06 05:48 23.97292 113.20674 22387 ft 451 kts 329°
2026-05-06 05:49 24.00004 113.18885 22776 ft 454 kts 329°
2026-05-06 05:49 24.02671 113.17126 23149 ft 456 kts 329°
2026-05-06 05:49 24.05414 113.15314 23523 ft 459 kts 329°
2026-05-06 05:49 24.08143 113.13512 23878 ft 461 kts 329°
2026-05-06 05:50 24.10877 113.11705 24220 ft 464 kts 329°
2026-05-06 05:50 24.13640 113.09887 24557 ft 466 kts 329°
2026-05-06 05:50 24.16407 113.08066 24885 ft 469 kts 329°
2026-05-06 05:50 24.19228 113.06207 25206 ft 471 kts 329°
2026-05-06 05:51 24.22008 113.04371 25510 ft 473 kts 329°
2026-05-06 05:51 24.24822 113.02510 25808 ft 475 kts 329°
2026-05-06 05:51 24.27653 113.00635 26109 ft 477 kts 329°
2026-05-06 05:51 24.30478 112.98763 26502 ft 476 kts 329°
2026-05-06 05:52 24.33274 112.96909 26943 ft 474 kts 329°
2026-05-06 05:52 24.36106 112.95029 27374 ft 472 kts 329°
2026-05-06 05:52 24.38864 112.93197 27769 ft 471 kts 329°
2026-05-06 05:52 24.41688 112.91320 28161 ft 470 kts 329°
2026-05-06 05:53 24.44446 112.89487 28538 ft 468 kts 329°
2026-05-06 05:53 24.47233 112.87633 28916 ft 467 kts 329°
2026-05-06 05:53 24.49999 112.85792 29285 ft 466 kts 329°
2026-05-06 05:53 24.52755 112.83958 29644 ft 464 kts 329°
2026-05-06 05:54 24.55518 112.82117 29999 ft 463 kts 329°
2026-05-06 05:54 24.58256 112.80293 30344 ft 462 kts 329°
2026-05-06 05:54 24.60972 112.78482 30676 ft 460 kts 329°
2026-05-06 05:54 24.63730 112.76642 30993 ft 459 kts 329°
2026-05-06 05:55 24.66460 112.74820 31290 ft 459 kts 329°
2026-05-06 05:55 24.69165 112.73013 31571 ft 458 kts 329°
2026-05-06 05:55 24.71891 112.71192 31846 ft 457 kts 329°
2026-05-06 05:55 24.74609 112.69375 32114 ft 457 kts 329°
2026-05-06 05:56 24.77303 112.67574 32375 ft 456 kts 329°
2026-05-06 05:56 24.79996 112.65771 32630 ft 456 kts 329°
2026-05-06 05:56 24.82701 112.63959 32881 ft 455 kts 329°
2026-05-06 05:56 24.85408 112.62147 33125 ft 454 kts 329°
2026-05-06 05:57 24.88087 112.60351 33361 ft 454 kts 330°
2026-05-06 05:57 24.90777 112.58546 33592 ft 453 kts 330°
2026-05-06 05:57 24.93435 112.56763 33813 ft 453 kts 330°
2026-05-06 05:57 24.96114 112.54964 34030 ft 452 kts 330°
2026-05-06 05:58 24.98791 112.53168 34248 ft 452 kts 329°
2026-05-06 05:58 25.01492 112.51356 34421 ft 452 kts 329°
2026-05-06 05:58 25.06849 112.47757 34565 ft 457 kts 329°
2026-05-06 05:59 25.12282 112.44105 34719 ft 461 kts 328°
2026-05-06 05:59 25.15019 112.42270 34840 ft 462 kts 328°
2026-05-06 05:59 25.17765 112.40425 35001 ft 462 kts 328°
2026-05-06 06:00 25.20523 112.38570 35178 ft 461 kts 328°
2026-05-06 06:00 25.23291 112.36704 35352 ft 461 kts 328°
2026-05-06 06:00 25.26063 112.34834 35517 ft 460 kts 328°
2026-05-06 06:00 25.28868 112.32928 35681 ft 460 kts 328°
2026-05-06 06:01 25.31743 112.30968 35843 ft 459 kts 328°
2026-05-06 06:01 25.34598 112.29024 35997 ft 459 kts 328°
2026-05-06 06:01 25.37453 112.27083 36147 ft 458 kts 328°
2026-05-06 06:01 25.40298 112.25152 36287 ft 458 kts 328°
2026-05-06 06:02 25.43137 112.23225 36416 ft 458 kts 328°
2026-05-06 06:02 25.45954 112.21313 36536 ft 458 kts 328°
2026-05-06 06:02 25.48735 112.19426 36648 ft 458 kts 328°
2026-05-06 06:02 25.51510 112.17542 36755 ft 458 kts 328°
2026-05-06 06:03 25.54297 112.15649 36858 ft 458 kts 328°
2026-05-06 06:03 25.57143 112.13715 36960 ft 458 kts 328°
2026-05-06 06:03 25.62833 112.09846 37152 ft 458 kts 328°
2026-05-06 06:04 25.68538 112.05962 37331 ft 458 kts 328°
2026-05-06 06:04 25.74242 112.02074 37498 ft 458 kts 328°
2026-05-06 06:05 25.79855 111.98244 37654 ft 458 kts 328°
2026-05-06 06:05 25.85432 111.94434 37811 ft 458 kts 328°
2026-05-06 06:06 25.91074 111.90575 37947 ft 458 kts 328°
2026-05-06 06:06 25.96726 111.86706 38054 ft 459 kts 328°
2026-05-06 06:07 26.02346 111.82853 38143 ft 459 kts 328°
2026-05-06 06:07 26.08004 111.78970 38229 ft 460 kts 328°
2026-05-06 06:08 26.13587 111.75143 38314 ft 460 kts 328°
2026-05-06 06:08 26.19188 111.71311 38394 ft 461 kts 328°
2026-05-06 06:09 26.24816 111.67445 38469 ft 461 kts 328°
2026-05-06 06:09 26.30502 111.63528 38539 ft 462 kts 328°
2026-05-06 06:10 26.36269 111.59548 38605 ft 462 kts 328°
2026-05-06 06:10 26.42079 111.55534 38667 ft 462 kts 328°
2026-05-06 06:11 26.47882 111.51519 38723 ft 463 kts 328°
2026-05-06 06:11 26.53676 111.47505 38775 ft 463 kts 328°
2026-05-06 06:12 26.59463 111.43492 38823 ft 463 kts 328°
2026-05-06 06:12 26.65292 111.39444 38867 ft 464 kts 328°
2026-05-06 06:13 26.71049 111.35441 38908 ft 464 kts 328°
2026-05-06 06:13 26.76748 111.31451 38953 ft 464 kts 327°
2026-05-06 06:14 26.82254 111.27589 38992 ft 464 kts 327°
2026-05-06 06:14 26.87723 111.23762 39028 ft 465 kts 327°
2026-05-06 06:15 26.93214 111.19927 39052 ft 465 kts 327°
2026-05-06 06:15 26.98690 111.16100 39031 ft 467 kts 326°
2026-05-06 06:16 27.04233 111.12220 39018 ft 468 kts 326°
2026-05-06 06:16 27.07015 111.10270 39251 ft 463 kts 326°
2026-05-06 06:16 27.09781 111.08330 39458 ft 459 kts 326°
2026-05-06 06:17 27.15310 111.04465 39507 ft 459 kts 326°
2026-05-06 06:17 27.21054 111.00442 39371 ft 463 kts 326°
2026-05-06 06:18 27.26854 110.96369 39217 ft 467 kts 326°
2026-05-06 06:18 27.32705 110.92248 39211 ft 468 kts 326°
2026-05-06 06:19 27.38467 110.88185 39320 ft 466 kts 326°
2026-05-06 06:19 27.44286 110.84075 39387 ft 464 kts 326°
2026-05-06 06:20 27.49932 110.80083 39397 ft 464 kts 326°
2026-05-06 06:20 27.55430 110.76193 39815 ft 453 kts 326°
2026-05-06 06:21 27.60879 110.72334 39888 ft 448 kts 326°
2026-05-06 06:21 27.66246 110.68523 39894 ft 448 kts 326°
2026-05-06 06:22 27.71563 110.64745 39898 ft 447 kts 326°
2026-05-06 06:22 27.76863 110.60976 39898 ft 448 kts 326°
2026-05-06 06:23 27.82089 110.57254 39896 ft 448 kts 326°
2026-05-06 06:23 27.87422 110.53451 39892 ft 448 kts 326°
2026-05-06 06:24 27.92711 110.49676 39890 ft 448 kts 326°
2026-05-06 06:24 27.98016 110.45885 39893 ft 448 kts 326°
2026-05-06 06:25 28.03284 110.42116 39886 ft 448 kts 326°
2026-05-06 06:26 28.11136 110.36490 39875 ft 448 kts 326°
2026-05-06 06:26 28.16415 110.32713 39869 ft 448 kts 325°
2026-05-06 06:27 28.21517 110.29034 39864 ft 449 kts 325°
2026-05-06 06:27 28.26741 110.25271 39860 ft 449 kts 325°
2026-05-06 06:28 28.32071 110.21429 39859 ft 450 kts 325°
2026-05-06 06:28 28.37426 110.17568 39854 ft 450 kts 325°
2026-05-06 06:29 28.42809 110.13682 39852 ft 451 kts 325°
2026-05-06 06:29 28.47664 110.10174 39853 ft 451 kts 325°
2026-05-06 06:30 28.52953 110.06348 39855 ft 452 kts 325°
2026-05-06 06:30 28.58241 110.02516 39857 ft 452 kts 325°
2026-05-06 06:31 28.63523 109.98684 39855 ft 453 kts 325°
2026-05-06 06:31 28.68836 109.94825 39854 ft 453 kts 325°
2026-05-06 06:32 28.74145 109.90964 39850 ft 453 kts 325°
2026-05-06 06:32 28.79455 109.87099 39847 ft 454 kts 325°
2026-05-06 06:33 28.84729 109.83255 39831 ft 454 kts 325°
2026-05-06 06:33 28.90055 109.79368 39805 ft 455 kts 325°
2026-05-06 06:34 28.95367 109.75486 39776 ft 456 kts 325°
2026-05-06 06:34 29.00732 109.71564 39755 ft 456 kts 325°
2026-05-06 06:35 29.06057 109.67667 39744 ft 457 kts 325°
2026-05-06 06:35 29.11384 109.63763 39741 ft 457 kts 324°
2026-05-06 06:36 29.16727 109.59862 39740 ft 457 kts 324°
2026-05-06 06:36 29.22134 109.55900 39741 ft 458 kts 324°
2026-05-06 06:37 29.27709 109.51801 39742 ft 458 kts 324°
2026-05-06 06:37 29.33043 109.47871 39742 ft 458 kts 324°
2026-05-06 06:38 29.38387 109.43928 39740 ft 458 kts 324°
2026-05-06 06:38 29.43841 109.39899 39741 ft 458 kts 324°
2026-05-06 06:39 29.49273 109.35880 39742 ft 458 kts 324°
2026-05-06 06:39 29.54637 109.31889 39741 ft 459 kts 324°
2026-05-06 06:40 29.60035 109.27858 39741 ft 460 kts 324°
2026-05-06 06:40 29.65437 109.23834 39741 ft 460 kts 324°
2026-05-06 06:41 29.70869 109.19788 39741 ft 461 kts 324°
2026-05-06 06:41 29.76352 109.15705 39741 ft 461 kts 324°
2026-05-06 06:42 29.81792 109.11649 39741 ft 462 kts 324°
2026-05-06 06:42 29.87397 109.07465 39740 ft 462 kts 323°
2026-05-06 06:43 29.92979 109.03291 39741 ft 462 kts 323°
2026-05-06 06:43 29.98524 108.99139 39741 ft 463 kts 323°
2026-05-06 06:44 30.04010 108.95025 39740 ft 463 kts 323°
2026-05-06 06:44 30.09423 108.90959 39741 ft 464 kts 323°
2026-05-06 06:45 30.14625 108.87065 39741 ft 464 kts 323°
2026-05-06 06:45 30.20077 108.82982 39741 ft 464 kts 323°
2026-05-06 06:46 30.25454 108.78938 39741 ft 464 kts 323°
2026-05-06 06:46 30.30905 108.74827 39741 ft 464 kts 323°
2026-05-06 06:47 30.36442 108.70643 39741 ft 464 kts 323°
2026-05-06 06:47 30.41963 108.66464 39741 ft 465 kts 323°
2026-05-06 06:48 30.47367 108.62368 39740 ft 465 kts 323°
2026-05-06 06:48 30.52850 108.58208 39740 ft 465 kts 323°
2026-05-06 06:49 30.58366 108.54016 39741 ft 465 kts 323°
2026-05-06 06:49 30.63905 108.49802 39741 ft 465 kts 323°
2026-05-06 06:50 30.69421 108.45599 39741 ft 465 kts 323°
2026-05-06 06:50 30.74883 108.41430 39740 ft 465 kts 323°
2026-05-06 06:51 30.80306 108.37286 39741 ft 465 kts 323°
2026-05-06 06:51 30.85692 108.33158 39741 ft 465 kts 322°
2026-05-06 06:52 30.91200 108.28910 39742 ft 466 kts 322°
2026-05-06 06:52 30.96664 108.24710 39742 ft 466 kts 321°
2026-05-06 06:53 31.02087 108.20541 39742 ft 465 kts 321°
2026-05-06 06:53 31.07532 108.16348 39741 ft 464 kts 321°
2026-05-06 06:54 31.13029 108.12114 39740 ft 464 kts 321°
2026-05-06 06:54 31.18661 108.07790 39740 ft 464 kts 321°
2026-05-06 06:55 31.24298 108.03445 39740 ft 464 kts 321°
2026-05-06 06:55 31.29964 107.99065 39741 ft 464 kts 321°
2026-05-06 06:56 31.35671 107.94644 39740 ft 465 kts 321°
2026-05-06 06:56 31.41248 107.90316 39742 ft 465 kts 321°
2026-05-06 06:57 31.46979 107.85861 39740 ft 465 kts 321°
2026-05-06 06:57 31.52679 107.81425 39740 ft 465 kts 321°
2026-05-06 06:58 31.58324 107.77023 39741 ft 465 kts 321°
2026-05-06 06:58 31.64025 107.72572 39741 ft 465 kts 321°
2026-05-06 06:59 31.69677 107.68153 39741 ft 465 kts 321°
2026-05-06 06:59 31.75255 107.63786 39741 ft 465 kts 321°
2026-05-06 07:00 31.80709 107.59507 39741 ft 465 kts 321°
2026-05-06 07:00 31.86153 107.55231 39740 ft 465 kts 321°
2026-05-06 07:01 31.91595 107.50951 39740 ft 465 kts 321°
2026-05-06 07:01 31.96936 107.46744 39740 ft 465 kts 321°
2026-05-06 07:02 32.02314 107.42503 39741 ft 465 kts 321°
2026-05-06 07:02 32.07642 107.38295 39739 ft 465 kts 321°
2026-05-06 07:03 32.12993 107.34070 39742 ft 465 kts 320°
2026-05-06 07:03 32.18379 107.29801 39742 ft 465 kts 320°
2026-05-06 07:04 32.23656 107.25611 39762 ft 465 kts 320°